Miscellaneous Local Product
Issued by NWS Hastings, NE

Home | Current Version | Previous Version | Text Only | Print | Product List | Glossary Off
Versions: 1 2 3 4 5 6 7 8 9 10 11 12 13 14 15 16 17 18 19 20 21 22 23 24 25 26 27 28 29 30 31 32 33 34 35 36 37 38 39 40 41 42 43 44 45 46 47 48 49 50

000
AXUS43 KGID 280902
MISGRI

GID CWA HOURLY WEATHER ROUNDUP
NATIONAL WEATHER SERVICE HASTINGS NE
400 AM CDT SUN JUN 28 2015

NOTE: "FAIR" INDICATES FEW OR NO CLOUDS BELOW 12,000 FEET WITH NO
SIGNIFICANT WEATHER AND/OR OBSTRUCTIONS TO VISIBILITY.

...SOUTH CENTRAL NEBRASKA...

CITY           SKY/WX    TMP DP  RH WIND       PRES   REMARKS
GRAND ISLAND   MOCLDY    71  54  54 SW14      29.95F
HASTINGS       CLEAR     67  55  65 SW6       29.96F
KEARNEY        CLEAR     68  54  60 SW12      29.97F
ORD            CLEAR     68  57  68 NW10      29.95R
YORK           CLEAR     66  57  72 SW10      29.94F
AURORA         MOCLDY    66  58  73 SW9       29.94F
LEXINGTON      CLEAR     63  56  78 NW6       30.00S
HOLDREGE       CLEAR     69  52  53 SW9       29.99F
HEBRON         CLEAR     69  57  65 SW8       29.96S

...NEBRASKA PANHANDLE...

CITY           SKY/WX    TMP DP  RH WIND       PRES   REMARKS
CHADRON        CLEAR     58  56  93 W8        30.10F
ALLIANCE       CLEAR     55  51  86 CALM      30.12F
SCOTTSBLUFF    CLEAR     61  54  77 CALM      30.13F
SIDNEY         CLEAR     55  52  89 NW7       30.15F

...WESTERN AND NORTH CENTRAL NEBRASKA...

CITY           SKY/WX    TMP DP  RH WIND       PRES   REMARKS
VALENTINE      CLEAR     62  57  83 NW9       30.02S
AINSWORTH      CLEAR     63  59  86 W6        30.01S
ONEILL         CLEAR     66  61  83 NW7       29.94S
BROKEN BOW     CLEAR     69  57  65 NW13      30.01R
IMPERIAL       PTCLDY    63  56  78 W6        30.07F
NORTH PLATTE   CLEAR     60  57  89 NW6       30.04F
MCCOOK         CLEAR     65  54  67 SW7       30.02F

...EASTERN NEBRASKA...

CITY           SKY/WX    TMP DP  RH WIND       PRES   REMARKS
NORFOLK        PTCLDY    67  59  75 NW7       29.90R
SO SIOUX CITY  PTCLDY    70  60  70 SW9       29.82F
TEKAMAH        MOCLDY    72  61  68 SW12      29.84F
COLUMBUS       CLEAR    N/A N/A N/A SW7       29.86F
ALBION         CLEAR     70  57  63 W9        29.90F
OMAHA EPPLEY   MOCLDY    71  62  73 S9        29.88F
OFFUTT AFB     MOCLDY    69  62  77 S6        29.88F
MILLARD        CLEAR     71  61  71 CALM      29.89F
LINCOLN        CLEAR     71  59  65 SW9       29.92F
NEBRASKA CITY  CLEAR     68  58  69 SW12      29.93F
BEATRICE       CLEAR     69  59  71 SW7       29.95F
FALLS CITY     CLEAR     67  62  84 S9        29.94F

...NORTHERN KANSAS...

CITY           SKY/WX    TMP DP  RH WIND       PRES   REMARKS
GOODLAND       CLEAR     70  54  56 SW8       30.10F
HILL CITY      CLEAR     66  53  63 W6        30.01F
NORTON         SUNNY     61  50  67 SW6       30.00F
PHILLIPSBURG   CLEAR     72  54  53 SW8       29.98F
SMITH CENTER   CLEAR     63  54  72 S3        29.99S
HAYS           CLEAR     64  50  59 SW8       30.02F
RUSSELL        CLEAR     65  55  70 SW10      30.00F
CONCORDIA      CLEAR     70  57  63 SW15      29.97F
SALINA         CLEAR     70  59  68 S9        29.99F
TOPEKA         CLEAR     70  61  73 S6        29.98F



USA.gov is the U.S. government's official web portal to all federal, state and local government web resources and services.